Location: Anuling
(14.1239°N, 120.8922°E)
Time: 07:26:03
(UTC+00:00)

Hubble Space Telescope - Visible Passes

Search period start: 12 March 2026 00:00
Search period end: 22 March 2026 00:00
Orbit: 476 x 479 km, 28.5° (Epoch: 11 March)

Date Brightness Start Highest point End Pass type
(mag) Time Alt. Az. Time Alt. Az. Time Alt. Az.
12 Mar 3.1 10:23:28 10° NW 10:25:14 13° NNW 10:26:58 10° NNE visible
16 Mar 3.1 11:41:41 10° NNW 11:42:38 13° N 11:42:38 13° N visible
17 Mar 2.7 11:10:57 10° NNW 11:13:01 14° NNE 11:13:44 13° NNE visible
18 Mar 2.8 10:40:12 10° NNW 10:42:16 14° NNE 10:44:20 10° NE visible
18 Mar 3.8 12:18:48 10° NW 12:18:56 11° NW 12:18:56 11° NW visible
19 Mar 2.2 11:48:02 10° NW 11:50:06 28° NNW 11:50:06 28° NNW visible
20 Mar 0.9 11:17:15 10° NW 11:20:52 45° NNE 11:21:18 43° NE visible
21 Mar 1.0 10:46:28 10° NW 10:50:05 45° NNE 10:52:32 18° E visible
21 Mar 3.9 12:26:30 10° W 12:26:37 11° W 12:26:37 11° W visible
